Flag for Ireland Weather past 2 weeks in Limerick, Ireland

Now
70 °F

Partly sunny.


Feels Like: 70 °F
Forecast: 55 / 78 °F
Wind: 7 mph from Northwest

Location: Shannon Airport

Current Time: Jul 24, 2014 at 2:32:03 PM

Latest Report: Jul 24, 2014 at 1:30 PM


Visibility: N/A

Pressure: 30.09 "Hg

Humidity: 83%

Dew point: 64 °F

Location of LimerickLocation

Historic Weather in Limerick — Graph

°F

Limerick temperature yesterday

Maximum temperature yesterday: 77 °F (at 5:00 PM)
Minimum temperature yesterday: 64 °F (at 2:00 AM)
Average temperature yesterday: 68 °F

Past Weeks' High & Low Weather Summary

 TemperatureHumidityPressure
High77 °F (Jul 22, 4:00 PM)100% (Jul 10, 12:30 AM)30.33 "Hg (Jul 10, 12:30 AM)
Low55 °F (Jul 13, 2:30 AM)46% (Jul 15, 2:30 PM)29.68 "Hg (Jul 19, 4:00 PM)
Average63 °F81%30.00 "Hg
* Reported Jul 9 2:00 PM — Jul 24 1:00 PM, Limerick, Weather by CustomWeather, © 2014

Note: Actual official high and low records may vary slightly from our data, if they occured in-between our weather recording intervals... More about our weather records

Advertising

Limerick weather history for previous 24 hours

 ConditionsComfort  
Time TempWeatherWind HumidityBarometerVisibility
1:00 PM
Jul 24
70 °FPartly sunny.7 mph83%30.09 "HgN/A
12:30 PM70 °FPartly sunny.6 mph78%30.09 "HgN/A
12:00 PM70 °FBroken clouds.6 mph78%30.09 "HgN/A
11:30 AM70 °FBroken clouds.3 mph78%30.09 "HgN/A
11:00 AM68 °FBroken clouds.7 mph83%30.09 "HgN/A
10:30 AM68 °FBroken clouds.6 mph78%30.09 "HgN/A
10:00 AM66 °FPartly sunny.5 mph88%30.09 "HgN/A
9:30 AM66 °FPartly sunny.6 mph88%30.09 "HgN/A
9:00 AM64 °FPartly sunny.7 mph88%30.09 "HgN/A
8:30 AM64 °FBroken clouds.7 mph88%30.09 "Hg5 mi
8:00 AM64 °FPartly sunny.8 mph94%30.09 "Hg4 mi
7:30 AM63 °FFog.7 mph100%30.09 "Hg2 mi
7:00 AM63 °FFog.7 mph100%30.09 "Hg2 mi
6:30 AM63 °FFog.3 mph100%30.09 "Hg1 mi
6:00 AM63 °FFog.6 mph100%30.09 "Hg1 mi
5:30 AM63 °FFog.6 mph100%30.09 "Hg1 mi
5:00 AM63 °FFog.5 mph100%30.09 "Hg1 mi
4:30 AM64 °FFog.5 mph94%30.09 "Hg1 mi
4:00 AM64 °FLow clouds.3 mph94%30.09 "Hg5 mi
3:30 AM64 °FMostly cloudy.3 mph94%30.09 "Hg5 mi
3:00 AM63 °FPassing clouds.3 mph94%30.09 "HgN/A
2:30 AM63 °FPassing clouds.3 mph94%30.09 "HgN/A
2:00 AM63 °FPassing clouds.2 mph94%30.09 "HgN/A
1:30 AM63 °FPassing clouds.2 mph88%30.09 "HgN/A
1:00 AM63 °FPassing clouds.5 mph88%30.09 "HgN/A
12:30 AM63 °FPassing clouds.5 mph88%30.09 "HgN/A
12:00 AM63 °FPassing clouds.6 mph88%30.09 "HgN/A
11:30 PM
Jul 23
64 °FPassing clouds.2 mph83%30.09 "HgN/A
11:00 PM64 °FPassing clouds.6 mph83%30.09 "HgN/A
10:30 PM66 °FScattered clouds.2 mph78%30.09 "HgN/A
10:00 PM66 °FScattered clouds.9 mph78%30.09 "HgN/A
9:30 PM66 °FBroken clouds.6 mph83%30.09 "HgN/A
9:00 PM66 °FPartly sunny.8 mph83%30.09 "HgN/A
8:00 PM66 °FSprinkles. Broken clouds.8 mph88%30.07 "HgN/A
7:30 PM68 °FSprinkles. Broken clouds.9 mph88%30.09 "HgN/A
7:00 PM70 °FSprinkles. Broken clouds.13 mph78%30.09 "HgN/A
6:30 PM75 °FPartly sunny.9 mph65%30.07 "HgN/A
6:00 PM75 °FPartly sunny.3 mph61%30.07 "HgN/A
5:30 PM77 °FPartly sunny.5 mph57%30.09 "HgN/A
5:00 PM77 °FBroken clouds.1 mph57%30.09 "HgN/A
4:30 PM75 °FPartly sunny.1 mph65%30.09 "HgN/A
4:00 PM73 °FPartly sunny.2 mph65%30.09 "HgN/A
3:30 PM73 °FPartly sunny.7 mph69%30.09 "HgN/A
3:00 PM73 °FPartly sunny.8 mph69%30.09 "HgN/A
2:00 PM73 °FBroken clouds.6 mph69%30.12 "HgN/A
Weather by CustomWeather, © 2014

See weather overviewHow to use our weather pages